User: anonymous   Login
Location: Unspecified
(0.0000°N, 0.0000°E)
Time: 12:13:32
(UTC+00:00)
Language:

P76-5 - Orbit

View from above orbital plane
View from above orbital plane
View from above satellite
View from above satellite

Ground track
Ground track

The orbit data is extracted from the following two-line orbital elements,

1 08860U 76047A   21015.81972319 -.00000005  00000-0  48546-4 0  9992
2 08860  99.8012 154.5183 0041649 347.2834 180.6562 13.67648846225904
Epoch (UTC): 15 January 2021 19:40:24
Eccentricity: 0.0041649
inclination: 99.8012°
perigee height: 977 km
apogee height: 1039 km
right ascension of ascending node: 154.5183°
argument of perigee: 347.2834°
revolutions per day: 13.67648846
mean anomaly at epoch: 180.6562°
orbit number at epoch: 22590

The dashed part of the orbit path shows where the satellite is in the earth's shadow,  

DLR